Location: Recife
(8.0585°S, 34.8848°W)
Time: 10:17:23
(UTC-03:00)

Vanguard 2 Rocket - Pass Details

Date: 19 April 2026
Orbit: 553 x 3286 km, 32.9° (Epoch: 8 May)

Event Time Altitude Azimuth Distance (km) Brightness Sun altitude
Rises 11:49:10 0° 231° (SW) 6,271 11.1 69.2°
Reaches altitude 10° 11:52:59 10° 228° (SW) 5,535 11.0 68.8°
Maximum altitude 12:11:14 64° 148° (SSE) 3,513 10.6 66.6°
Drops below altitude 10° 12:30:16 10° 70° (ENE) 5,773 11.0 63.7°
Sets 12:34:18 0° 67° (ENE) 6,545 11.2 63.0°
